Location: Unspecified
(40.7945°N, 0.0000°E)
Time: 07:25:25
(UTC+00:00)

Tiros 1 despin weight - Pass Details

Date: 26 January 2021
Orbit: 593 x 642 km, 48.2° (Epoch: 05 March)

Event Time Altitude Azimuth Distance (km) Brightness Sun altitude
Rises 17:27:10 0° 297° (WNW) 2,869 ? -3.8°
Reaches altitude 10° 17:29:36 10° 305° (NW) 1,955 ? -4.2°
Maximum altitude 17:33:49 39° 15° (NNE) 900 ? -5.0°
Drops below altitude 10° 17:37:59 10° 85° (E) 1,929 ? -5.7°
Enters shadow 17:38:56 - 89° (E) 2,278 ? -5.9°
